Location: Caltech
(34.1382°N, 118.1253°W)
Time: 19:01:51
(UTC-07:00)

ASTRO E2 - Visible Passes

Search period start: 14 September 2014 00:00
Search period end: 24 September 2014 00:00
Orbit: 534 x 541 km, 31.4° (Epoch: 13 September)

Date Brightness Start Highest point End Pass type
(mag) Time Alt. Az. Time Alt. Az. Time Alt. Az.
14 Sep 4.6 04:16:04 26° ESE 04:16:04 26° ESE 04:18:04 10° E visible
14 Sep 3.1 05:51:25 13° W 05:54:52 51° S 05:58:52 10° ESE visible
15 Sep 5.1 04:06:12 19° ESE 04:06:12 19° ESE 04:07:30 10° E visible
15 Sep 3.2 05:41:32 18° WSW 05:44:17 46° S 05:48:14 10° ESE visible
16 Sep 5.6 03:56:21 14° ESE 03:56:21 14° ESE 03:56:55 10° E visible
16 Sep 3.4 05:31:42 24° WSW 05:33:40 40° SSW 05:37:33 10° ESE visible
17 Sep 3.6 05:21:56 29° SW 05:23:02 35° SSW 05:26:48 10° SE visible
18 Sep 3.7 05:12:13 30° SSW 05:12:23 30° SSW 05:16:00 10° SE visible
19 Sep 4.3 05:02:35 23° S 05:02:35 23° S 05:05:06 10° SE visible
20 Sep 5.0 04:53:01 15° SSE 04:53:01 15° SSE 04:54:06 10° SSE visible
